This is the latest recevied weather packets stored in our database for station/object K7CTM. If no packets are shown the sender has not sent any weather packets the latest 10 day(s).
| Time | Temp. | Humidity | Pressure | Rain* | Wind** | Luminosity | Snow |
|---|---|---|---|---|---|---|---|
| 1778091980 | 12.78° C | 29% | 1024.6 hPa | 0 mm | - | 847 W/m² | - |
| 1778091676 | 12.78° C | 26% | 1024.7 hPa | 0 mm | - | 844 W/m² | - |
| 1778091374 | 12.78° C | 28% | 1024.8 hPa | 0 mm | - | 843 W/m² | - |
| 1778091071 | 12.22° C | 27% | 1024.9 hPa | 0 mm | - | 833 W/m² | - |
| 1778090768 | 11.67° C | 29% | 1025.2 hPa | 0 mm | - | 830 W/m² | - |
| 1778090464 | 12.22° C | 31% | 1025.4 hPa | 0 mm | - | 826 W/m² | - |
| 1778090161 | 11.67° C | 30% | 1025.3 hPa | 0 mm | - | 824 W/m² | - |
| 1778089857 | 10.56° C | 31% | 1025.6 hPa | 0 mm | - | 820 W/m² | - |
| 1778089556 | 11.11° C | 31% | 1025.6 hPa | 0 mm | - | 777 W/m² | - |
| 1778089251 | 10.56° C | 35% | 1025.7 hPa | 0 mm | - | 582 W/m² | - |
| 1778088949 | 10.56° C | 33% | 1025.8 hPa | 0 mm | - | 483 W/m² | - |
| 1778088646 | 11.11° C | 35% | 1026 hPa | 0 mm | - | 893 W/m² | - |
| 1778088343 | 10.56° C | 36% | 1026.1 hPa | 0 mm | - | 797 W/m² | - |
| 1778088039 | 10° C | 36% | 1026.2 hPa | 0 mm | - | 772 W/m² | - |
| 1778087737 | 9.44° C | 36% | 1026.3 hPa | 0 mm | - | 759 W/m² | - |
| 1778087435 | 8.89° C | 36% | 1026.3 hPa | 0 mm | - | 752 W/m² | - |
| 1778087132 | 9.44° C | 37% | 1026.4 hPa | 0 mm | - | 742 W/m² | - |
| 1778086830 | 8.89° C | 37% | 1026.4 hPa | 0 mm | - | 735 W/m² | - |
| 1778086528 | 8.89° C | 38% | 1026.6 hPa | 0 mm | - | 723 W/m² | - |
| 1778086223 | 8.89° C | 38% | 1026.5 hPa | 0 mm | - | 713 W/m² | - |
| 1778085921 | 8.33° C | 38% | 1026.6 hPa | 0 mm | - | 701 W/m² | - |
| 1778085618 | 8.33° C | 39% | 1027 hPa | 0 mm | - | 688 W/m² | - |
| 1778085314 | 8.33° C | 39% | 1027.1 hPa | 0 mm | - | 688 W/m² | - |
| 1778085010 | 7.78° C | 38% | 1027.1 hPa | 0 mm | - | 672 W/m² | - |
| 1778084706 | 8.33° C | 40% | 1027.1 hPa | 0 mm | - | 661 W/m² | - |
* Rain latest hour (hover to see other rain measurements)
** Current wind speed in m/s (hover to see current wind gust speed)